sat.trackr.live / text

‹ back to catalog

STARLINK-35394

NORAD 66023 · 2025-232U

PAYLOAD ACTIVE UNKNOWN

§ Identity

Operator
Country
US
Launch date
2025-10-16
Launch site
AFETR
Launch vehicle
Mass (kg)
RCS (m²)

Purposes: comms

External: N2YO · Heavens-Above · Gunter

§ Orbital elements

Epoch: 2026-09-19T01:30:04.801248Z

Period
93.85 min
Inclination
53.1583°
Eccentricity
0.0002248
Mean motion
15.34404103 rev/d
Perigee alt
461.2 km
Apogee alt
464.2 km
Semi-major
6,840.8 km
B*
5.4147e-4
RAAN
284.1666°
Arg perigee
72.1473°
Mean anomaly
287.9775°
Rev number
5,306

§ Raw data

STARLINK-353941 66023U 25232U   26262.06255557  .00017965  00000+0  54147-3 0  99952 66023  53.1583 284.1666 0002248  72.1473 287.9775 15.34404103 53061

JSON: /api/v1/satellites/66023 · /tle

For live sub-satellite position, see the globe view (requires WebGL).

§ Visibility from observer

Set your observer location to see the next 7 days of passes ≥ 10°. The values pass through the URL so the page stays shareable.

No JS? Fill the form by hand. The geolocation button needs JavaScript.